Weather in Trestna

Russia / Tver Oblast     57°31′46″N   35°58′00″E
temp.,
°C
wind,
m/s
gust,
m/s
humid.,
%
clouds,
%
prec.,
mm/h
press.,
hPa
HPBL,
m
24 january, mon
mon2400:00−17wsw1210083 0.0 103521
03:00−17s229970 0.0 103640
06:00−16sw259979 0.0 103574
09:00−16ssw279865 0.0 103689
12:00−10ssw38905 0.0 1034191
15:00−8ssw310895 0.0 1033322
18:00−10ssw4119413 0.0 1032240
21:00−11ssw412905 0.0 1030259
25 january, tue
tue2500:00−11ssw414895 0.0 1028304
03:00−11ssw5158615 0.0 1025348
06:00−10ssw51585100 0.0 1023382
09:00−10ssw51488100 0.0 1020392
12:00−8ssw51292100 0.3 1018403
15:00−7ssw41095100 0.9 1015413
18:00−7ssw3895100 1.5 1014347
21:00−6sw2596100 2.6 1014199
26 january, wed
wed2600:00−4nnw31095100 0.6 1013502
03:00−5nnw51194100 0.7 1015567
06:00−8nnw41094100 0.1 1016428
09:00−12nnw4119433 0.1 1018251
12:00−11nnw38895 0.0 1019204
15:00−9nw25925 0.0 1019185
18:00−16nw219862 0.0 102017
21:00−18wnw119976 0.0 10199
27 january, thu
thu2700:00−18ssw1198100 0.0 101811
03:00−14s2594100 0.0 101793
06:00−13s3893100 0.0 1015167
09:00−13sse31092100 0.0 1014218
12:00−10sse41287100 0.0 1012352
15:00−8sse51286100 0.0 1010502
18:00−9s51390100 0.0 1009542
21:00−9s51293100 0.1 1007455
28 january, fri
fri2800:00−10sse41194100 0.1 1005385
03:00−10sse41194100 0.1 1004385
06:00−9sse51294100 0.1 1002399
09:00−9sse51394100 0.3 1001449
12:00−7sse51293100 0.5 1000462
15:00−6sse499399 0.8 1000478
18:00−7se3995100 0.4 1000388
21:00−7se3796100 0.9 1000313